When you browse on this site, cookies collect data to enhance your experience and personalize the content and advertising you see.
Visit our Privacy Policy to learn more. By continuing to use the site, you agree to this use of cookies and data.
  • In France
  • List of Countries
  • For 7 days
  • Water Temperature
  • Satellite Maps
  • Weather Map
  • Weather Widgets
  • user-avatar
    Login

    Hourly Weather Wangbuzhuang

    Today, 19 July, Friday

    Time Temperature Precipitation Wind Pressure Humidity
    00:00 +26°C° 0 mm 2 mps 754 mmHg 68%
    01:00 +26°C° 0 mm 2 mps 753 mmHg 71%
    02:00 +25°C° 0 mm 2 mps 754 mmHg 73%
    03:00 +25°C° 0 mm 2 mps 754 mmHg 73%
    04:00 +25°C° 0 mm 2 mps 754 mmHg 74%
    05:00 +25°C° 0 mm 2 mps 754 mmHg 75%
    06:00 +26°C° 0 mm 2 mps 754 mmHg 69%
    07:00 +28°C° 0 mm 2 mps 753 mmHg 63%
    08:00 +30°C° 0 mm 2 mps 753 mmHg 57%
    09:00 +32°C° 0 mm 2 mps 753 mmHg 52%
    10:00 +35°C° 0 mm 2 mps 753 mmHg 47%
    11:00 +37°C° 0 mm 2 mps 753 mmHg 41%
    12:00 +37°C° 0 mm 3 mps 752 mmHg 41%
    13:00 +37°C° 0 mm 4 mps 752 mmHg 40%
    14:00 +37°C° 0 mm 4 mps 752 mmHg 40%
    15:00 +37°C° 0 mm 4 mps 751 mmHg 40%
    16:00 +37°C° 0 mm 4 mps 751 mmHg 39%
    17:00 +37°C° 0 mm 4 mps 751 mmHg 39%
    18:00 +35°C° 0 mm 4 mps 751 mmHg 46%
    19:00 +33°C° 0 mm 4 mps 751 mmHg 53%
    20:00 +29°C° 0 mm 4 mps 751 mmHg 61%
    21:00 +29°C° 0 mm 4 mps 751 mmHg 65%
    22:00 +28°C° 0 mm 4 mps 751 mmHg 70%
    23:00 +27°C° 0 mm 3 mps 751 mmHg 74%

    Tomorrow, 20 July, Saturday

    Time Temperature Precipitation Wind Pressure Humidity
    00:00 +26°C° 0 mm 3 mps 751 mmHg 77%
    01:00 +26°C° 0 mm 3 mps 751 mmHg 80%
    02:00 +25°C° 0 mm 3 mps 751 mmHg 83%
    03:00 +25°C° 0 mm 3 mps 751 mmHg 85%
    04:00 +24°C° 0 mm 2 mps 751 mmHg 87%
    05:00 +24°C° 0 mm 2 mps 751 mmHg 89%
    06:00 +25°C° 0 mm 2 mps 752 mmHg 85%
    07:00 +26°C° 0 mm 2 mps 752 mmHg 80%
    08:00 +27°C° 0 mm 1 mps 752 mmHg 75%
    09:00 +27°C° 0.1 mm 1 mps 752 mmHg 77%
    10:00 +27°C° 0.1 mm 1 mps 752 mmHg 78%
    11:00 +26°C° 0.1 mm 1 mps 752 mmHg 79%
    12:00 +27°C° 0.2 mm 1 mps 752 mmHg 78%
    13:00 +27°C° 0.2 mm 1 mps 751 mmHg 77%
    14:00 +28°C° 0.2 mm 1 mps 751 mmHg 76%
    15:00 +29°C° 0 mm 1 mps 751 mmHg 68%
    16:00 +31°C° 0 mm 1 mps 750 mmHg 60%
    17:00 +32°C° 0 mm 2 mps 750 mmHg 52%
    18:00 +31°C° 0 mm 2 mps 750 mmHg 56%
    19:00 +30°C° 0 mm 2 mps 750 mmHg 60%
    20:00 +28°C° 0 mm 2 mps 750 mmHg 64%
    21:00 +28°C° 0 mm 2 mps 750 mmHg 66%
    22:00 +27°C° 0 mm 1 mps 750 mmHg 68%
    23:00 +27°C° 0 mm 1 mps 750 mmHg 71%

    Day after tomorrow, 21 July, Sunday

    Time Temperature Precipitation Wind Pressure Humidity
    00:00 +26°C° 0 mm 1 mps 750 mmHg 72%
    01:00 +26°C° 0 mm 1 mps 750 mmHg 74%
    02:00 +26°C° 0 mm 1 mps 750 mmHg 76%
    03:00 +25°C° 0 mm 1 mps 750 mmHg 78%
    04:00 +23°C° 0 mm 0 mps 750 mmHg 79%
    05:00 +23°C° 0 mm 0 mps 750 mmHg 81%
    06:00 +27°C° 0 mm 1 mps 750 mmHg 72%
    07:00 +30°C° 0 mm 1 mps 751 mmHg 63%
    08:00 +32°C° 0 mm 2 mps 751 mmHg 54%
    09:00 +35°C° 0 mm 2 mps 751 mmHg 48%
    10:00 +37°C° 0 mm 3 mps 750 mmHg 42%
    11:00 +40°C° 0 mm 3 mps 750 mmHg 36%
    12:00 +42°C° 0 mm 3 mps 750 mmHg 32%
    13:00 +43°C° 0 mm 3 mps 749 mmHg 28%
    14:00 +45°C° 0 mm 3 mps 748 mmHg 24%
    15:00 +45°C° 0 mm 3 mps 748 mmHg 23%
    16:00 +45°C° 0 mm 3 mps 747 mmHg 21%
    17:00 +46°C° 0 mm 3 mps 747 mmHg 20%
    18:00 +43°C° 0 mm 3 mps 747 mmHg 24%
    19:00 +40°C° 0 mm 3 mps 748 mmHg 28%
    20:00 +38°C° 0 mm 3 mps 748 mmHg 32%
    21:00 +37°C° 0 mm 3 mps 748 mmHg 34%
    22:00 +36°C° 0 mm 3 mps 748 mmHg 37%
    23:00 +35°C° 0 mm 4 mps 749 mmHg 40%

    22 July, Monday

    Time Temperature Precipitation Wind Pressure Humidity
    00:00 +34°C° 0 mm 3 mps 749 mmHg 42%
    01:00 +32°C° 0 mm 2 mps 749 mmHg 45%
    02:00 +32°C° 0 mm 1 mps 749 mmHg 47%
    03:00 +31°C° 0 mm 1 mps 749 mmHg 49%
    04:00 +30°C° 0 mm 1 mps 748 mmHg 52%
    05:00 +29°C° 0 mm 1 mps 748 mmHg 54%
    06:00 +32°C° 0 mm 1 mps 749 mmHg 48%
    07:00 +34°C° 0 mm 1 mps 749 mmHg 42%
    08:00 +37°C° 0 mm 2 mps 749 mmHg 36%
    09:00 +39°C° 0 mm 3 mps 749 mmHg 32%
    10:00 +43°C° 0 mm 3 mps 748 mmHg 27%
    11:00 +45°C° 0 mm 4 mps 748 mmHg 23%
    12:00 +45°C° 0 mm 6 mps 748 mmHg 24%
    13:00 +44°C° 0 mm 7 mps 748 mmHg 25%
    14:00 +43°C° 0 mm 8 mps 748 mmHg 26%
    15:00 +40°C° 0 mm 7 mps 748 mmHg 31%
    16:00 +36°C° 0 mm 7 mps 748 mmHg 36%
    17:00 +34°C° 0 mm 6 mps 748 mmHg 42%
    18:00 +33°C° 0 mm 5 mps 749 mmHg 43%
    19:00 +33°C° 0 mm 3 mps 749 mmHg 44%
    20:00 +31°C° 0 mm 1 mps 749 mmHg 45%
    21:00 +29°C° 0.2 mm 2 mps 749 mmHg 54%
    22:00 +28°C° 0.2 mm 3 mps 749 mmHg 63%
    23:00 +26°C° 0.2 mm 3 mps 749 mmHg 72%

    23 July, Tuesday

    Time Temperature Precipitation Wind Pressure Humidity
    00:00 +25°C° 1.3 mm 3 mps 749 mmHg 79%
    01:00 +25°C° 1.3 mm 2 mps 749 mmHg 86%
    02:00 +24°C° 1.3 mm 2 mps 749 mmHg 93%
    03:00 +24°C° 2 mm 2 mps 748 mmHg 94%
    04:00 +24°C° 2 mm 2 mps 748 mmHg 95%
    05:00 +24°C° 2 mm 1 mps 748 mmHg 96%
    06:00 +24°C° 2 mm 2 mps 748 mmHg 95%
    07:00 +24°C° 2 mm 2 mps 748 mmHg 95%
    08:00 +25°C° 2 mm 2 mps 748 mmHg 95%
    09:00 +25°C° 0.1 mm 2 mps 748 mmHg 93%
    10:00 +26°C° 0.1 mm 1 mps 748 mmHg 91%
    11:00 +26°C° 0.1 mm 1 mps 748 mmHg 89%
    12:00 +28°C° 0 mm 1 mps 747 mmHg 81%
    13:00 +30°C° 0 mm 1 mps 747 mmHg 73%
    14:00 +31°C° 0 mm 1 mps 746 mmHg 64%
    15:00 +32°C° 0 mm 1 mps 746 mmHg 61%
    16:00 +32°C° 0 mm 2 mps 746 mmHg 59%
    17:00 +34°C° 0 mm 2 mps 746 mmHg 56%
    18:00 +32°C° 0 mm 2 mps 746 mmHg 62%
    19:00 +30°C° 0 mm 2 mps 746 mmHg 68%
    20:00 +29°C° 0 mm 3 mps 746 mmHg 75%
    21:00 +28°C° 0 mm 2 mps 747 mmHg 78%
    22:00 +27°C° 0 mm 2 mps 747 mmHg 81%
    23:00 +27°C° 0 mm 1 mps 747 mmHg 85%

    24 July, Wednesday

    Time Temperature Precipitation Wind Pressure Humidity
    00:00 +26°C° 0 mm 1 mps 747 mmHg 86%
    01:00 +26°C° 0 mm 1 mps 747 mmHg 87%
    02:00 +24°C° 0 mm 0 mps 748 mmHg 89%
    03:00 +26°C° 0 mm 1 mps 748 mmHg 90%
    04:00 +25°C° 0 mm 1 mps 748 mmHg 90%
    05:00 +25°C° 0 mm 2 mps 748 mmHg 91%
    06:00 +27°C° 0 mm 2 mps 748 mmHg 84%
    07:00 +28°C° 0 mm 2 mps 748 mmHg 77%
    08:00 +30°C° 0 mm 2 mps 749 mmHg 70%
    09:00 +32°C° 0 mm 2 mps 748 mmHg 64%
    10:00 +34°C° 0 mm 2 mps 748 mmHg 57%
    11:00 +36°C° 0 mm 2 mps 748 mmHg 51%
    12:00 +37°C° 0 mm 2 mps 748 mmHg 47%
    13:00 +38°C° 0 mm 2 mps 747 mmHg 42%
    14:00 +40°C° 0 mm 3 mps 747 mmHg 38%
    15:00 +38°C° 0 mm 4 mps 746 mmHg 43%
    16:00 +37°C° 0 mm 5 mps 746 mmHg 48%
    17:00 +36°C° 0 mm 7 mps 746 mmHg 53%
    18:00 +33°C° 1.3 mm 6 mps 746 mmHg 64%
    19:00 +29°C° 1.3 mm 5 mps 747 mmHg 74%
    20:00 +26°C° 1.3 mm 4 mps 748 mmHg 85%
    21:00 +26°C° 2.4 mm 4 mps 748 mmHg 86%
    22:00 +25°C° 2.4 mm 4 mps 749 mmHg 88%
    23:00 +25°C° 2.4 mm 4 mps 749 mmHg 89%
    Show more